When you browse on this site, cookies collect data to enhance your experience and personalize the content and advertising you see.
Visit our Privacy Policy to learn more. By continuing to use the site, you agree to this use of cookies and data.
  • In France
  • List of Countries
  • For 7 days
  • Water Temperature
  • Satellite Maps
  • Weather Map
  • Weather Widgets
  • user-avatar
    Login

    Hourly Weather Montana

    Today, 23 March, Saturday

    Time Temperature Precipitation Wind Pressure Humidity
    00:00 +10°C° 0 mm 1 mps 741 mmHg 56%
    01:00 +10°C° 0 mm 1 mps 741 mmHg 55%
    02:00 +10°C° 0 mm 1 mps 741 mmHg 52%
    03:00 +9°C° 0 mm 1 mps 741 mmHg 53%
    04:00 +9°C° 0 mm 1 mps 741 mmHg 54%
    05:00 +9°C° 0 mm 1 mps 741 mmHg 54%
    06:00 +9°C° 0 mm 1 mps 741 mmHg 54%
    07:00 +10°C° 0 mm 1 mps 741 mmHg 55%
    08:00 +11°C° 0 mm 1 mps 741 mmHg 53%
    09:00 +13°C° 0 mm 1 mps 740 mmHg 50%
    10:00 +14°C° 0 mm 1 mps 740 mmHg 48%
    11:00 +16°C° 0 mm 2 mps 740 mmHg 45%
    12:00 +16°C° 0 mm 2 mps 739 mmHg 43%
    13:00 +17°C° 0 mm 2 mps 739 mmHg 42%
    14:00 +18°C° 0 mm 2 mps 739 mmHg 40%
    15:00 +18°C° 0 mm 2 mps 738 mmHg 41%
    16:00 +18°C° 0 mm 2 mps 738 mmHg 42%
    17:00 +18°C° 0 mm 2 mps 737 mmHg 43%
    18:00 +16°C° 0 mm 2 mps 738 mmHg 49%
    19:00 +15°C° 0 mm 1 mps 738 mmHg 54%
    20:00 +13°C° 0 mm 1 mps 738 mmHg 60%
    21:00 +13°C° 0 mm 1 mps 738 mmHg 63%
    22:00 +12°C° 0 mm 1 mps 739 mmHg 65%
    23:00 +12°C° 0 mm 1 mps 739 mmHg 68%

    Tomorrow, 24 March, Sunday

    Time Temperature Precipitation Wind Pressure Humidity
    00:00 +11°C° 0 mm 1 mps 740 mmHg 70%
    01:00 +10°C° 0 mm 1 mps 740 mmHg 73%
    02:00 +9°C° 0 mm 1 mps 740 mmHg 75%
    03:00 +9°C° 0 mm 1 mps 740 mmHg 75%
    04:00 +8°C° 0 mm 1 mps 740 mmHg 75%
    05:00 +8°C° 0 mm 1 mps 740 mmHg 75%
    06:00 +8°C° 0 mm 1 mps 740 mmHg 72%
    07:00 +9°C° 0 mm 1 mps 740 mmHg 69%
    08:00 +9°C° 0 mm 1 mps 740 mmHg 67%
    09:00 +11°C° 0 mm 1 mps 740 mmHg 59%
    10:00 +12°C° 0 mm 1 mps 739 mmHg 52%
    11:00 +14°C° 0 mm 2 mps 739 mmHg 45%
    12:00 +15°C° 0 mm 2 mps 739 mmHg 42%
    13:00 +16°C° 0 mm 2 mps 738 mmHg 39%
    14:00 +17°C° 0 mm 2 mps 738 mmHg 36%
    15:00 +17°C° 0 mm 2 mps 737 mmHg 36%
    16:00 +16°C° 0 mm 1 mps 737 mmHg 37%
    17:00 +16°C° 0 mm 1 mps 736 mmHg 37%
    18:00 +15°C° 0 mm 1 mps 736 mmHg 42%
    19:00 +13°C° 0 mm 1 mps 736 mmHg 46%
    20:00 +12°C° 0 mm 1 mps 736 mmHg 51%
    21:00 +12°C° 0 mm 1 mps 736 mmHg 52%
    22:00 +11°C° 0 mm 1 mps 736 mmHg 53%
    23:00 +11°C° 0 mm 1 mps 736 mmHg 54%

    Day after tomorrow, 25 March, Monday

    Time Temperature Precipitation Wind Pressure Humidity
    00:00 +10°C° 0 mm 2 mps 736 mmHg 55%
    01:00 +10°C° 0 mm 2 mps 736 mmHg 56%
    02:00 +9°C° 0 mm 2 mps 735 mmHg 58%
    03:00 +9°C° 0 mm 2 mps 735 mmHg 59%
    04:00 +9°C° 0 mm 2 mps 735 mmHg 60%
    05:00 +8°C° 0 mm 2 mps 734 mmHg 62%
    06:00 +9°C° 0 mm 2 mps 734 mmHg 61%
    07:00 +10°C° 0 mm 2 mps 734 mmHg 60%
    08:00 +12°C° 0 mm 2 mps 734 mmHg 59%
    09:00 +14°C° 0 mm 1 mps 734 mmHg 51%
    10:00 +16°C° 0 mm 1 mps 733 mmHg 43%
    11:00 +19°C° 0 mm 1 mps 733 mmHg 34%
    12:00 +20°C° 0 mm 1 mps 732 mmHg 32%
    13:00 +21°C° 0 mm 1 mps 732 mmHg 29%
    14:00 +21°C° 0 mm 2 mps 731 mmHg 26%
    15:00 +21°C° 0 mm 1 mps 730 mmHg 28%
    16:00 +21°C° 0 mm 1 mps 730 mmHg 29%
    17:00 +21°C° 0 mm 1 mps 729 mmHg 30%
    18:00 +19°C° 0 mm 1 mps 729 mmHg 35%
    19:00 +16°C° 0 mm 1 mps 729 mmHg 39%
    20:00 +15°C° 0 mm 1 mps 729 mmHg 44%
    21:00 +14°C° 0 mm 1 mps 729 mmHg 45%
    22:00 +14°C° 0 mm 1 mps 729 mmHg 46%
    23:00 +13°C° 0 mm 1 mps 729 mmHg 47%

    26 March, Tuesday

    Time Temperature Precipitation Wind Pressure Humidity
    00:00 +13°C° 0 mm 1 mps 729 mmHg 49%
    01:00 +12°C° 0 mm 1 mps 730 mmHg 50%
    02:00 +12°C° 0 mm 1 mps 730 mmHg 52%
    03:00 +12°C° 0 mm 2 mps 730 mmHg 55%
    04:00 +10°C° 0 mm 3 mps 731 mmHg 58%
    05:00 +10°C° 0 mm 4 mps 731 mmHg 62%
    06:00 +10°C° 0 mm 4 mps 732 mmHg 64%
    07:00 +8°C° 0 mm 4 mps 733 mmHg 66%
    08:00 +8°C° 0 mm 5 mps 733 mmHg 69%
    09:00 +9°C° 0 mm 5 mps 734 mmHg 64%
    10:00 +9°C° 0 mm 5 mps 734 mmHg 58%
    11:00 +10°C° 0 mm 5 mps 734 mmHg 53%
    12:00 +10°C° 0 mm 5 mps 735 mmHg 51%
    13:00 +12°C° 0 mm 5 mps 735 mmHg 49%
    14:00 +11°C° 0 mm 6 mps 735 mmHg 47%
    15:00 +11°C° 0 mm 6 mps 735 mmHg 46%
    16:00 +10°C° 0 mm 5 mps 735 mmHg 44%
    17:00 +10°C° 0 mm 5 mps 735 mmHg 43%
    18:00 +10°C° 0 mm 4 mps 736 mmHg 45%
    19:00 +8°C° 0 mm 4 mps 737 mmHg 47%
    20:00 +8°C° 0 mm 3 mps 737 mmHg 48%
    21:00 +8°C° 0 mm 3 mps 737 mmHg 51%
    22:00 +7°C° 0 mm 2 mps 738 mmHg 53%
    23:00 +7°C° 0 mm 2 mps 738 mmHg 55%

    27 March, Wednesday

    Time Temperature Precipitation Wind Pressure Humidity
    00:00 +6°C° 0 mm 2 mps 738 mmHg 57%
    01:00 +6°C° 0 mm 2 mps 739 mmHg 59%
    02:00 +6°C° 0 mm 2 mps 739 mmHg 61%
    03:00 +6°C° 0.1 mm 2 mps 739 mmHg 64%
    04:00 +6°C° 0.1 mm 2 mps 739 mmHg 68%
    05:00 +6°C° 0.1 mm 2 mps 739 mmHg 71%
    06:00 +6°C° 0.2 mm 2 mps 740 mmHg 75%
    07:00 +6°C° 0.2 mm 2 mps 740 mmHg 78%
    08:00 +6°C° 0.2 mm 2 mps 740 mmHg 81%
    09:00 +6°C° 0.1 mm 2 mps 740 mmHg 79%
    10:00 +7°C° 0.1 mm 2 mps 740 mmHg 77%
    11:00 +8°C° 0.1 mm 2 mps 740 mmHg 75%
    12:00 +8°C° 0.1 mm 2 mps 740 mmHg 72%
    13:00 +9°C° 0.1 mm 2 mps 740 mmHg 68%
    14:00 +9°C° 0.1 mm 2 mps 740 mmHg 65%
    15:00 +9°C° 0.1 mm 2 mps 739 mmHg 64%
    16:00 +9°C° 0.1 mm 2 mps 739 mmHg 62%
    17:00 +10°C° 0.1 mm 2 mps 739 mmHg 61%
    18:00 +10°C° 0.1 mm 1 mps 740 mmHg 66%
    19:00 +9°C° 0.1 mm 1 mps 740 mmHg 70%
    20:00 +8°C° 0.1 mm 1 mps 740 mmHg 75%
    21:00 +7°C° 0 mm 1 mps 741 mmHg 77%
    22:00 +6°C° 0 mm 1 mps 741 mmHg 79%
    23:00 +6°C° 0 mm 1 mps 741 mmHg 82%

    28 March, Thursday

    Time Temperature Precipitation Wind Pressure Humidity
    00:00 +5°C° 0 mm 1 mps 741 mmHg 82%
    01:00 +5°C° 0 mm 1 mps 742 mmHg 83%
    02:00 +5°C° 0 mm 1 mps 742 mmHg 83%
    03:00 +4°C° 0 mm 1 mps 742 mmHg 84%
    04:00 +4°C° 0 mm 1 mps 742 mmHg 85%
    05:00 +4°C° 0 mm 1 mps 742 mmHg 87%
    06:00 +4°C° 0 mm 1 mps 743 mmHg 84%
    07:00 +5°C° 0 mm 1 mps 743 mmHg 82%
    08:00 +5°C° 0 mm 1 mps 743 mmHg 79%
    09:00 +5°C° 0 mm 2 mps 744 mmHg 76%
    10:00 +6°C° 0 mm 2 mps 744 mmHg 72%
    11:00 +7°C° 0 mm 2 mps 744 mmHg 69%
    12:00 +8°C° 0.1 mm 3 mps 744 mmHg 64%
    13:00 +9°C° 0.1 mm 3 mps 743 mmHg 59%
    14:00 +9°C° 0.1 mm 3 mps 743 mmHg 53%
    15:00 +9°C° 0 mm 3 mps 743 mmHg 52%
    16:00 +8°C° 0 mm 4 mps 743 mmHg 50%
    17:00 +8°C° 0 mm 4 mps 743 mmHg 48%
    18:00 +8°C° 0 mm 3 mps 743 mmHg 53%
    19:00 +6°C° 0 mm 2 mps 743 mmHg 58%
    20:00 +5°C° 0 mm 2 mps 744 mmHg 63%
    21:00 +5°C° 0 mm 1 mps 744 mmHg 63%
    22:00 +5°C° 0 mm 1 mps 744 mmHg 64%
    23:00 +4°C° 0 mm 1 mps 745 mmHg 65%
    Show more